Location: Marne
(34.0056°N, 117.9064°W)
Time: 17:01:52
(UTC+00:00)

Centaur D-1A AC-35 - Pass Details

Date: 18 January 2020
Orbit: 592 x 36442 km, 25.7° (Epoch: 22 February)

Event Time Altitude Azimuth Distance (km) Brightness Sun altitude
Rises 02:47:28 0° 248° (WSW) 2,987 7.1 -20.5°
Reaches altitude 10° 02:49:02 10° 240° (WSW) 2,316 6.0 -20.9°
Maximum altitude 02:53:31 48° 165° (SSE) 1,696 4.1 -21.8°
Enters shadow 03:00:26 25° 105° (ESE) 4,289 5.8 -23.2°
